Wind_Speed
12 10 8 7 5 8 6 6 2 6 3 2 2 6 4 4 10 9 9 4 5 11 12 14 15 15 14 12 13 14 13 10 8 8 9 10 12 14 15 15 15 15 16 15 12 9 7 6 6
15 12 10 8 13 20 8 7 5 2 5 3 2 5 4 6 9 6 4 4 3 10 13 13 14 15 15 13 10 10 10 9 7 6 7 9 11 13 15 16 16 16 17 16 14 11 7 5 4
17 14 10 14 18 22 12 5 4 1 3 3 1 3 2 1 3 6 10 6 4 7 14 13 14 15 15 14 11 7 7 6 5 5 6 9 11 13 15 16 16 16 19 19 16 13 10 6 4
14 11 11 15 18 14 5 1 4 1 1 2 2 2 4 4 2 4 7 8 10 6 12 15 14 14 14 14 11 8 5 4 3 4 6 9 11 13 15 17 16 15 19 20 17 14 11 6 4
11 9 16 19 18 18 7 8 5 4 3 4 0 2 4 9 4 4 7 11 10 10 12 15 14 14 13 12 12 9 6 3 1 2 4 8 11 14 15 17 17 15 16 18 17 13 9 6 4
9 10 17 19 19 16 16 12 11 8 6 5 1 3 7 8 6 5 7 7 13 13 13 14 15 14 13 12 10 9 7 5 2 1 2 4 7 11 14 15 17 17 16 17 16 13 9 6 4
13 15 16 18 17 12 12 12 15 11 10 7 4 5 7 8 5 4 5 2 10 9 14 16 16 16 15 14 12 9 7 6 4 3 4 5 7 9 12 14 15 16 16 16 17 13 9 7 5
12 15 20 19 19 17 14 16 11 13 10 10 5 5 7 6 5 7 5 2 6 9 15 17 17 17 15 15 13 12 9 8 6 5 5 7 9 10 12 14 17 17 16 15 16 13 10 7 6
12 16 19 17 15 16 16 13 12 13 13 9 8 13 7 7 6 10 10 7 7 6 10 14 18 18 17 16 14 13 11 9 8 6 6 7 10 11 13 14 16 17 17 17 16 14 9 7 5
16 15 16 13 13 12 13 12 13 14 12 14 11 11 9 7 9 14 14 14 10 10 7 8 16 19 19 18 16 15 13 11 11 10 8 9 11 14 15 15 16 17 17 16 16 15 9 8 4
16 21 14 13 15 13 15 16 13 15 16 15 13 11 9 14 13 11 11 13 13 15 13 12 11 18 19 19 17 16 15 14 13 12 11 11 12 13 14 16 16 17 16 16 14 13 8 8 2
22 18 19 17 13 14 15 17 17 16 16 13 15 14 10 11 16 13 13 14 15 16 15 15 13 15 19 22 21 19 18 16 16 15 14 14 13 14 15 15 19 18 20 16 15 15 10 8 7
19 20 16 17 19 16 15 18 20 19 15 18 17 16 11 13 15 16 14 14 13 18 19 19 18 16 17 21 23 22 21 20 19 19 17 17 15 16 14 16 14 15 12 17 16 16 12 10 9
17 18 21 19 17 17 18 18 19 20 17 17 18 13 13 12 14 15 20 19 17 19 20 19 23 20 17 16 19 20 24 24 22 23 22 19 19 20 17 17 16 17 15 14 15 18 14 11 11
19 22 17 22 19 17 15 20 23 18 15 16 16 14 14 12 13 14 13 18 17 21 21 19 22 23 21 17 17 17 22 25 27 25 26 23 21 23 19 20 18 17 15 19 15 15 14 12 12
17 19 21 18 20 18 17 19 16 19 18 17 15 16 14 12 11 14 13 12 19 21 21 20 23 25 22 22 19 18 19 21 25 25 28 27 25 24 21 21 21 19 19 19 15 14 14 13 13
18 22 20 16 17 15 19 14 13 14 17 15 14 18 16 13 17 23 21 18 17 18 18 20 20 21 21 23 21 18 20 21 21 21 21 26 24 24 22 20 21 21 21 19 17 16 14 14 13
20 21 20 17 16 14 19 19 13 15 16 15 15 16 18 14 16 21 23 21 18 19 20 21 21 21 22 22 21 20 17 22 18 11 14 20 24 18 17 20 20 21 20 21 18 17 17 14 14
24 19 14 16 20 15 17 19 18 18 18 17 16 17 18 19 16 16 22 25 23 21 20 21 21 22 21 19 20 21 21 19 15 12 16 31 23 11 22 19 21 19 20 21 19 19 17 15 16
23 20 22 19 18 18 19 20 21 20 19 17 17 19 18 13 11 21 26 27 29 28 26 26 24 23 23 23 23 23 23 20 20 16 11 23 27 21 23 21 21 21 20 21 21 19 19 16 18
22 22 21 20 16 18 19 23 21 19 18 18 16 14 12 13 12 24 25 26 27 30 30 29 30 30 27 26 26 26 26 27 25 23 15 11 21 24 22 18 19 21 19 24 21 19 20 19 21
23 20 20 20 20 21 21 22 27 24 20 16 15 13 13 9 11 12 24 26 24 23 24 29 28 32 33 33 31 30 31 29 31 30 27 27 24 25 25 30 32 31 27 25 23 21 21 21 22
23 18 18 20 23 21 21 16 24 26 23 20 16 14 10 8 6 11 24 29 27 24 23 23 23 26 31 33 35 35 34 32 32 35 37 35 31 31 30 29 31 32 29 29 28 24 21 25 22
19 18 20 19 22 22 28 26 19 25 28 25 16 12 10 7 4 13 21 29 28 27 27 27 27 26 27 30 32 35 36 34 33 35 38 38 38 37 34 35 33 32 31 33 32 29 26 25 26
17 18 18 18 18 18 26 29 22 12 15 17 16 10 7 5 3 2 19 17 27 27 26 27 28 30 31 30 31 35 34 33 33 33 33 35 39 42 43 40 37 36 34 33 33 31 30 30 29
20 24 26 20 14 16 20 31 15 15 16 17 14 10 7 7 4 1 14 15 24 25 24 24 25 28 30 34 34 34 37 36 34 35 32 33 33 35 42 41 42 35 33 35 36 33 34 35 36
21 20 17 14 26 20 15 8 8 13 13 13 12 10 6 4 2 3 5 12 14 19 21 20 20 21 24 28 32 34 35 36 38 35 38 35 33 31 35 37 30 35 38 39 37 35 35 38 40
16 15 14 20 14 18 20 11 11 9 7 12 10 8 4 2 1 2 4 7 7 12 13 21 15 14 17 20 22 24 27 29 33 34 32 28 26 30 32 30 36 36 36 33 33 33 35 35 40
13 19 22 20 16 12 13 18 2 10 12 6 8 5 3 1 4 5 5 9 7 7 10 22 19 12 11 14 14 15 17 22 23 24 29 29 29 32 33 31 31 32 31 31 29 30 30 34 36
13 15 7 11 17 22 24 21 7 6 11 7 3 3 2 1 2 5 6 8 16 22 19 20 20 18 22 14 11 10 10 11 14 20 23 27 28 31 30 30 26 25 26 24 20 16 18 31 37
Wind_Direction
270 282 305 334 263 254 170 134 115 56 144 21 244 206 305 201 30 104 154 180 178 165 170 158 152 153 154 146 136 127 117 101 76 58 45 34 29 25 22 25 26 26 22 16 13 11 8 8 3
264 274 286 276 257 252 110 155 166 93 6 5 311 231 281 22 57 128 150 117 178 172 171 168 159 157 157 153 146 135 125 118 104 70 45 30 23 21 20 20 20 21 19 14 14 12 11 11 7
259 261 268 252 249 263 144 190 194 235 4 26 44 201 168 125 128 149 204 244 288 210 178 176 170 164 162 156 152 144 129 112 88 60 37 22 17 14 15 18 16 17 17 16 20 20 17 11 8
252 259 254 247 247 241 272 200 190 184 326 18 323 182 207 214 196 222 257 260 244 226 200 181 179 173 169 161 157 153 140 116 83 38 20 13 8 8 10 11 11 12 18 16 18 20 21 21 13
244 226 245 246 245 244 246 237 240 231 270 319 175 219 241 273 263 275 254 249 240 227 204 195 190 185 179 173 166 164 157 146 95 33 17 7 3 2 5 5 5 5 12 15 15 9 11 11 4
229 231 246 246 243 242 242 236 241 238 260 273 259 237 221 280 261 280 269 255 226 225 203 200 195 196 194 186 181 178 177 180 201 298 335 354 358 359 358 359 0 1 3 8 9 6 360 348 340
222 234 250 257 264 251 237 242 236 240 247 256 266 233 235 262 235 245 288 269 200 234 210 200 202 203 203 201 196 199 203 209 228 267 301 331 343 347 349 350 354 358 358 359 1 358 357 345 327
226 243 257 253 255 256 252 239 234 232 233 257 257 227 195 195 203 199 198 222 249 252 216 203 206 208 212 214 209 210 217 228 239 265 303 324 328 335 342 344 346 352 352 352 354 352 354 354 343
237 238 247 251 249 246 243 255 233 234 233 246 256 238 254 217 207 193 197 211 230 258 245 229 213 212 213 220 223 225 231 245 256 271 291 306 316 326 333 338 340 345 345 343 348 349 350 352 349
222 236 241 255 252 236 243 244 226 247 248 240 247 274 231 215 203 203 209 219 228 221 214 271 233 222 222 225 225 232 236 246 262 273 284 298 310 320 326 333 333 336 337 336 342 344 341 340 344
236 238 239 266 251 242 237 248 252 250 244 228 230 231 249 218 209 193 199 204 222 220 227 245 251 237 227 238 233 238 244 250 258 269 280 288 298 307 313 319 321 327 328 325 336 337 332 346 310
243 244 249 249 252 241 239 253 252 248 236 226 228 234 249 236 222 207 206 216 224 234 233 237 243 241 225 233 237 237 244 248 257 263 269 276 286 296 304 312 318 328 327 335 327 332 326 313 300
247 246 250 250 245 250 247 246 254 253 250 235 239 248 244 227 224 207 205 208 222 216 223 226 234 230 223 234 242 244 244 251 257 265 271 278 282 284 291 296 303 303 303 312 319 323 313 306 299
248 255 248 253 247 247 251 250 252 252 246 239 233 242 230 230 234 221 217 222 214 218 239 226 227 222 224 230 241 240 246 250 251 260 267 269 278 280 284 286 291 293 298 299 314 316 310 302 306
246 255 256 242 243 242 248 250 240 243 233 232 233 232 225 220 224 222 232 228 236 224 216 223 228 223 218 230 241 242 241 243 251 254 262 266 268 275 278 284 289 296 288 280 301 305 306 296 299
240 246 252 251 241 239 231 253 255 235 233 240 229 221 225 224 211 214 219 232 225 216 215 220 222 229 220 227 229 236 240 243 247 254 260 262 264 268 274 281 287 287 283 277 294 302 304 289 294
240 244 239 244 218 229 229 245 241 221 221 231 224 218 225 224 236 223 215 216 213 219 219 220 221 225 225 226 231 237 242 237 242 255 265 269 261 266 274 277 280 278 281 285 288 294 295 288 289
232 231 245 235 223 226 230 240 229 229 233 232 224 220 221 220 235 238 232 232 228 227 222 224 226 229 235 233 234 238 248 242 244 282 278 275 261 268 278 277 278 283 285 282 284 285 287 277 283
252 256 266 243 237 237 237 238 236 237 236 237 225 222 219 218 241 233 243 243 247 244 252 230 231 231 237 239 241 242 242 247 244 277 272 218 226 265 285 273 273 278 283 279 285 283 279 273 274
243 249 248 250 242 246 246 247 241 235 234 230 229 218 210 224 234 249 256 255 253 257 261 259 244 239 235 240 241 240 238 242 235 253 283 233 231 260 284 276 281 284 279 279 283 282 275 270 271
241 243 248 248 243 246 246 251 239 233 220 209 207 199 212 222 237 248 248 251 255 260 262 262 259 253 250 247 246 245 239 239 237 242 231 233 233 259 277 289 297 291 284 282 282 284 274 271 269
247 244 247 248 242 243 235 252 233 218 209 211 208 211 221 223 234 238 240 240 247 248 248 257 260 261 257 253 254 252 246 243 242 247 234 233 229 239 251 268 279 283 280 272 277 276 272 266 268
245 244 242 246 248 254 241 241 288 198 202 204 202 198 192 193 199 235 242 248 248 248 252 253 256 260 258 255 251 253 252 249 245 242 247 244 237 237 244 246 247 252 259 268 268 266 266 266 259
245 249 249 244 243 244 243 244 240 223 202 195 194 185 169 168 196 236 246 248 250 252 256 257 255 256 260 256 250 248 253 252 249 250 249 250 249 244 244 248 250 256 261 264 269 275 267 261 260
238 238 241 230 231 243 246 236 243 179 151 178 182 173 162 162 173 197 244 259 255 265 262 264 260 254 254 257 254 248 248 247 247 250 253 254 251 247 247 248 248 252 259 267 272 272 270 265 261
242 234 241 250 247 259 274 229 166 167 155 158 165 148 141 143 164 42 251 257 266 264 263 262 263 259 250 247 251 254 251 252 251 254 253 255 259 258 253 248 249 252 255 261 268 273 269 269 264
241 252 252 292 269 265 243 134 135 161 168 167 158 148 147 141 120 36 338 262 262 269 262 254 255 255 257 258 252 250 253 255 254 252 255 258 259 260 265 256 253 255 257 264 271 276 277 274 271
235 250 250 245 270 271 266 226 267 177 208 182 164 155 167 161 209 321 359 350 330 291 297 269 254 248 251 254 255 255 254 252 253 257 255 250 250 251 253 252 248 248 256 262 266 270 270 275 277
232 241 237 253 228 251 264 273 220 220 222 135 155 178 198 253 251 286 301 305 308 312 317 285 281 291 249 239 244 251 255 257 250 241 242 241 240 249 248 246 245 248 254 260 264 269 269 262 260
233 242 240 268 227 235 262 263 205 255 236 274 211 234 206 148 317 315 312 315 282 283 279 282 276 284 292 264 244 243 245 251 242 238 237 238 242 245 248 249 250 250 246 244 240 250 269 262 252
Height
3188 3188 3189 3189 3194 3184 3176 3183 3184 3185 3186 3185 3184 3181 3181 3173 3177 3186 3186 3186 3187 3187 3188 3189 3190 3192 3195 3196 3196 3195 3195 3197 3200 3201 3202 3202 3202 3201 3201 3201 3200 3200 3199 3198 3196 3195 3195 3194 3194
3186 3188 3189 3189 3190 3176 3175 3181 3184 3184 3185 3184 3184 3183 3183 3178 3180 3183 3186 3187 3187 3187 3188 3190 3191 3192 3194 3196 3197 3197 3197 3198 3199 3201 3202 3202 3202 3202 3202 3201 3201 3200 3200 3198 3196 3195 3195 3194 3194
3185 3187 3190 3189 3184 3175 3180 3182 3182 3185 3185 3185 3185 3183 3183 3182 3184 3188 3185 3186 3187 3188 3189 3190 3192 3193 3194 3196 3198 3199 3199 3200 3201 3202 3203 3204 3203 3203 3202 3202 3201 3201 3200 3199 3197 3195 3194 3194 3194
3183 3187 3189 3186 3180 3177 3177 3180 3182 3185 3185 3185 3184 3185 3185 3183 3186 3185 3185 3186 3187 3188 3189 3190 3192 3194 3195 3196 3198 3199 3201 3201 3202 3203 3204 3205 3205 3205 3203 3203 3202 3202 3200 3199 3197 3196 3195 3195 3195
3180 3185 3185 3182 3179 3177 3177 3180 3183 3184 3185 3184 3185 3185 3185 3182 3183 3183 3184 3184 3186 3188 3189 3191 3193 3195 3196 3197 3197 3199 3200 3202 3203 3204 3205 3205 3206 3205 3205 3204 3203 3203 3202 3200 3198 3197 3196 3196 3195
3182 3184 3182 3178 3176 3176 3177 3179 3182 3183 3184 3184 3184 3184 3182 3181 3181 3182 3183 3184 3185 3186 3188 3190 3193 3195 3196 3197 3199 3199 3200 3201 3203 3204 3204 3205 3205 3205 3205 3205 3204 3203 3202 3201 3199 3198 3196 3195 3195
3179 3181 3179 3176 3173 3173 3175 3178 3180 3181 3182 3183 3181 3182 3176 3178 3179 3181 3182 3183 3184 3186 3187 3189 3192 3194 3196 3197 3198 3200 3201 3202 3203 3204 3205 3205 3205 3205 3205 3204 3204 3203 3202 3201 3200 3198 3197 3195 3195
3177 3179 3176 3175 3173 3173 3174 3175 3178 3179 3181 3178 3178 3177 3174 3176 3175 3179 3182 3183 3185 3185 3186 3187 3190 3193 3195 3197 3199 3200 3201 3203 3203 3204 3205 3205 3205 3205 3205 3205 3204 3203 3202 3201 3200 3199 3198 3196 3195
3173 3176 3173 3172 3172 3172 3172 3173 3175 3176 3176 3178 3178 3174 3177 3180 3174 3179 3182 3184 3184 3186 3186 3188 3190 3191 3194 3196 3199 3200 3201 3203 3203 3204 3205 3205 3205 3205 3205 3204 3203 3202 3201 3200 3200 3198 3197 3197 3196
3170 3171 3170 3170 3169 3170 3170 3171 3172 3174 3174 3176 3177 3173 3171 3172 3175 3178 3181 3182 3183 3184 3185 3188 3189 3191 3193 3195 3197 3199 3200 3202 3203 3204 3204 3205 3205 3204 3204 3204 3203 3202 3201 3200 3199 3198 3197 3195 3195
3168 3167 3168 3168 3168 3169 3169 3168 3170 3170 3172 3175 3177 3176 3174 3174 3176 3180 3182 3182 3182 3182 3184 3185 3187 3189 3191 3194 3196 3198 3199 3201 3202 3203 3204 3204 3204 3204 3203 3202 3202 3202 3201 3199 3198 3197 3195 3195 3196
3165 3165 3166 3166 3166 3165 3166 3166 3165 3167 3169 3172 3173 3173 3174 3173 3175 3178 3182 3183 3181 3180 3181 3184 3185 3186 3189 3191 3193 3196 3197 3199 3200 3201 3202 3202 3203 3203 3203 3202 3200 3200 3198 3198 3199 3197 3196 3195 3196
3161 3162 3163 3162 3162 3162 3163 3162 3162 3163 3166 3168 3170 3171 3172 3174 3174 3176 3180 3183 3183 3182 3180 3181 3182 3185 3187 3189 3190 3193 3195 3196 3198 3198 3200 3201 3202 3201 3202 3201 3202 3200 3200 3198 3197 3196 3195 3195 3194
3160 3158 3158 3158 3158 3158 3158 3158 3159 3159 3162 3164 3166 3168 3172 3174 3174 3174 3173 3175 3178 3180 3177 3178 3180 3183 3185 3187 3188 3190 3192 3193 3195 3195 3197 3199 3199 3199 3199 3199 3199 3199 3198 3197 3196 3194 3194 3193 3193
3155 3155 3153 3153 3154 3154 3156 3154 3153 3157 3159 3160 3163 3166 3169 3171 3173 3174 3172 3171 3172 3173 3174 3175 3178 3178 3182 3184 3185 3186 3187 3190 3192 3193 3192 3194 3197 3196 3197 3197 3197 3196 3195 3195 3195 3194 3192 3191 3191
3151 3152 3149 3148 3149 3151 3153 3149 3150 3152 3154 3156 3160 3163 3166 3168 3171 3167 3170 3168 3168 3170 3171 3172 3174 3175 3178 3180 3181 3182 3184 3185 3187 3189 3189 3191 3192 3193 3195 3195 3195 3195 3193 3193 3191 3191 3190 3190 3190
3148 3145 3144 3144 3145 3148 3148 3147 3148 3149 3151 3154 3156 3160 3163 3166 3163 3162 3163 3163 3165 3167 3168 3170 3172 3174 3175 3178 3179 3180 3180 3181 3183 3184 3186 3187 3189 3190 3191 3192 3192 3191 3191 3190 3188 3187 3188 3188 3188
3140 3139 3140 3139 3141 3143 3144 3144 3145 3147 3149 3151 3153 3156 3160 3163 3156 3157 3158 3160 3162 3164 3166 3167 3169 3171 3173 3174 3175 3176 3177 3178 3181 3182 3182 3184 3186 3187 3187 3188 3189 3188 3189 3187 3186 3186 3186 3186 3186
3137 3137 3135 3137 3139 3140 3141 3141 3142 3144 3146 3148 3150 3152 3155 3156 3151 3153 3154 3155 3157 3160 3161 3163 3165 3167 3168 3170 3172 3173 3175 3176 3178 3179 3176 3178 3183 3183 3183 3185 3184 3186 3185 3185 3184 3184 3184 3184 3184
3136 3136 3136 3136 3136 3137 3138 3136 3137 3139 3141 3144 3146 3148 3149 3151 3151 3148 3149 3151 3152 3154 3157 3158 3160 3162 3164 3166 3168 3170 3171 3173 3174 3174 3173 3174 3179 3181 3179 3183 3181 3182 3182 3182 3182 3182 3181 3182 3181
3133 3133 3132 3132 3132 3134 3134 3130 3131 3133 3136 3136 3139 3140 3144 3146 3144 3143 3145 3145 3147 3149 3151 3152 3154 3157 3159 3161 3162 3164 3166 3167 3168 3169 3171 3173 3177 3178 3179 3179 3179 3178 3180 3178 3180 3179 3179 3179 3178
3129 3130 3130 3129 3129 3126 3126 3122 3121 3126 3131 3134 3137 3140 3141 3141 3140 3138 3139 3141 3142 3145 3146 3145 3148 3149 3152 3154 3156 3157 3160 3161 3163 3165 3166 3167 3169 3172 3175 3175 3176 3175 3175 3173 3174 3175 3175 3176 3176
3125 3126 3125 3127 3125 3125 3121 3122 3114 3117 3124 3129 3133 3134 3136 3135 3134 3133 3133 3135 3138 3140 3141 3143 3143 3143 3144 3146 3148 3150 3153 3154 3156 3158 3158 3161 3164 3165 3167 3168 3168 3169 3169 3170 3169 3170 3170 3170 3172
3123 3123 3123 3122 3122 3117 3115 3115 3113 3110 3114 3121 3127 3130 3129 3130 3130 3129 3129 3130 3132 3134 3136 3137 3138 3138 3138 3139 3141 3143 3144 3147 3149 3150 3152 3154 3156 3159 3160 3161 3163 3163 3164 3163 3164 3165 3166 3165 3166
3121 3120 3117 3114 3111 3105 3109 3110 3110 3108 3112 3117 3123 3124 3124 3127 3129 3127 3126 3125 3127 3128 3130 3130 3131 3132 3133 3133 3133 3135 3137 3138 3140 3141 3144 3145 3146 3149 3151 3154 3155 3156 3159 3159 3159 3161 3161 3160 3160
3112 3114 3110 3102 3097 3095 3099 3095 3102 3106 3109 3113 3118 3118 3121 3125 3125 3124 3121 3122 3121 3123 3124 3125 3125 3125 3125 3126 3127 3128 3129 3131 3133 3134 3135 3137 3138 3139 3140 3145 3147 3151 3152 3152 3153 3154 3155 3155 3156
3111 3109 3109 3107 3104 3100 3098 3099 3104 3105 3108 3109 3110 3114 3118 3120 3122 3122 3120 3119 3119 3119 3118 3119 3119 3119 3120 3120 3120 3120 3121 3123 3124 3126 3128 3128 3131 3132 3133 3137 3141 3143 3145 3146 3147 3148 3149 3149 3150
3107 3108 3109 3107 3106 3102 3099 3100 3104 3105 3110 3110 3108 3111 3114 3117 3121 3120 3120 3117 3117 3117 3115 3113 3114 3114 3114 3114 3114 3115 3114 3114 3116 3118 3120 3120 3123 3124 3127 3128 3132 3134 3136 3138 3138 3140 3140 3140 3139
3104 3104 3106 3107 3110 3102 3101 3098 3100 3104 3104 3099 3107 3108 3109 3113 3115 3116 3115 3113 3114 3114 3113 3111 3111 3109 3109 3109 3108 3109 3109 3110 3110 3110 3112 3112 3115 3117 3119 3120 3121 3124 3127 3128 3129 3129 3128 3128 3126
3099 3100 3101 3104 3102 3101 3098 3099 3099 3099 3102 3102 3105 3108 3105 3109 3110 3110 3109 3109 3108 3107 3108 3107 3108 3106 3104 3105 3104 3104 3104 3104 3104 3105 3104 3106 3107 3109 3109 3112 3114 3116 3117 3119 3121 3121 3119 3116 3114